| time (UTC) | temp F | wind direction | speed MPH | gust MPH | rain 1hr in | rain 24hr in | rain mn in | humidity % | barometer mb |
| 20260831001552 | 78 | 182 | 4.0 | 9.0 | 0.00 | 0.00 | 0.00 | 84 | 1019.8 |
| 20260831000049 | 78 | 211 | 5.0 | 11.0 | 0.00 | 0.00 | 0.00 | 83 | 1019.8 |
| 20260830234556 | 79 | 172 | 6.0 | 13.0 | 0.00 | 0.00 | 0.00 | 82 | 1019.7 |
| 20260830233054 | 80 | 190 | 6.0 | 12.0 | 0.00 | 0.00 | 0.00 | 81 | 1019.6 |
| 20260830231552 | 81 | 167 | 5.0 | 14.0 | 0.00 | 0.00 | 0.00 | 80 | 1019.7 |
| 20260830230049 | 81 | 176 | 5.0 | 10.0 | 0.00 | 0.00 | 0.00 | 80 | 1019.6 |
| 20260830224553 | 82 | 188 | 3.0 | 10.0 | 0.00 | 0.00 | 0.00 | 80 | 1019.5 |
| 20260830223054 | 82 | 201 | 4.0 | 12.0 | 0.00 | 0.00 | 0.00 | 79 | 1019.5 |
| 20260830221550 | 82 | 153 | 4.0 | 14.0 | 0.00 | 0.00 | 0.00 | 78 | 1019.5 |
| 20260830214554 | 83 | 156 | 3.0 | 13.0 | 0.00 | 0.00 | 0.00 | 77 | 1019.2 |
| 20260830213056 | 84 | 188 | 5.0 | 10.0 | 0.00 | 0.00 | 0.00 | 76 | 1019.4 |
| 20260830211608 | 84 | 201 | 4.0 | 10.0 | 0.00 | 0.00 | 0.00 | 75 | 1019.3 |
| 20260830210056 | 86 | 164 | 5.0 | 11.0 | 0.00 | 0.00 | 0.00 | 69 | 1019.1 |
| 20260830204550 | 88 | 264 | 2.0 | 8.0 | 0.00 | 0.00 | 0.00 | 61 | 1019.1 |
| 20260830203100 | 87 | 221 | 4.0 | 10.0 | 0.00 | 0.00 | 0.00 | 62 | 1019.3 |
| 20260830201559 | 86 | 189 | 3.0 | 12.0 | 0.00 | 0.00 | 0.00 | 71 | 1019.4 |
| 20260830200054 | 86 | 200 | 4.0 | 11.0 | 0.00 | 0.00 | 0.00 | 67 | 1019.6 |
| 20260830194552 | 87 | 167 | 4.0 | 11.0 | 0.00 | 0.00 | 0.00 | 67 | 1019.6 |
| 20260830193057 | 87 | 163 | 3.0 | 12.0 | 0.00 | 0.00 | 0.00 | 68 | 1019.7 |
| 20260830191559 | 86 | 127 | 3.0 | 13.0 | 0.00 | 0.00 | 0.00 | 68 | 1019.9 |
| 20260830184554 | 86 | 257 | 4.0 | 8.0 | 0.00 | 0.00 | 0.00 | 67 | 1020.5 |
| 20260830183058 | 87 | 144 | 4.0 | 11.0 | 0.00 | 0.00 | 0.00 | 65 | 1020.6 |
| 20260830181554 | 88 | 196 | 2.0 | 12.0 | 0.00 | 0.00 | 0.00 | 59 | 1020.7 |
| 20260830180057 | 88 | 194 | 3.0 | 10.0 | 0.00 | 0.00 | 0.00 | 58 | 1020.9 |
| 20260830174547 | 88 | 225 | 3.0 | 10.0 | 0.00 | 0.00 | 0.00 | 58 | 1021.2 |
| 20260830173116 | 86 | 232 | 7.0 | 12.0 | 0.00 | 0.00 | 0.00 | 60 | 1021.4 |
| 20260830171602 | 86 | 206 | 5.0 | 10.0 | 0.00 | 0.00 | 0.00 | 60 | 1021.4 |
| 20260830170050 | 86 | 244 | 7.0 | 13.0 | 0.00 | 0.00 | 0.00 | 60 | 1021.8 |
| 20260830164555 | 84 | 208 | 8.0 | 15.0 | 0.00 | 0.00 | 0.00 | 61 | 1021.8 |
| 20260830163050 | 85 | 200 | 6.0 | 16.0 | 0.00 | 0.00 | 0.00 | 61 | 1021.9 |
| 20260830161606 | 84 | 232 | 6.0 | 12.0 | 0.00 | 0.00 | 0.00 | 63 | 1022.1 |
| 20260830160105 | 84 | 214 | 7.0 | 10.0 | 0.00 | 0.00 | 0.00 | 63 | 1022.3 |
| 20260830154551 | 85 | 220 | 1.0 | 8.0 | 0.00 | 0.00 | 0.00 | 65 | 1022.4 |
| 20260830153102 | 84 | 166 | 3.0 | 8.0 | 0.00 | 0.00 | 0.00 | 66 | 1022.4 |
| 20260830151605 | 82 | 263 | 5.0 | 10.0 | 0.00 | 0.00 | 0.00 | 68 | 1022.6 |
| 20260830150056 | 82 | 131 | 2.0 | 9.0 | 0.00 | 0.00 | 0.00 | 69 | 1022.4 |
| 20260830144557 | 82 | 219 | 3.0 | 10.0 | 0.00 | 0.00 | 0.00 | 69 | 1022.5 |
| 20260830143049 | 81 | 202 | 4.0 | 7.0 | 0.00 | 0.00 | 0.00 | 71 | 1022.8 |
| 20260830141554 | 81 | 211 | 2.0 | 8.0 | 0.00 | 0.00 | 0.00 | 72 | 1022.7 |
| 20260830134600 | 78 | 223 | 6.0 | 10.0 | 0.00 | 0.00 | 0.00 | 74 | 1023.0 |
| 20260830133058 | 77 | 166 | 5.0 | 10.0 | 0.00 | 0.00 | 0.00 | 76 | 1023.0 |
| 20260830131559 | 77 | 190 | 6.0 | 10.0 | 0.00 | 0.00 | 0.00 | 78 | 1023.4 |
| 20260830130050 | 76 | 141 | 4.0 | 11.0 | 0.00 | 0.00 | 0.00 | 80 | 1023.4 |
| 20260830124558 | 76 | 189 | 3.0 | 8.0 | 0.00 | 0.00 | 0.00 | 82 | 1023.6 |
| 20260830123055 | 75 | 196 | 2.0 | 7.0 | 0.00 | 0.00 | 0.00 | 84 | 1023.6 |
| 20260830121552 | 74 | 148 | 1.0 | 6.0 | 0.00 | 0.00 | 0.00 | 87 | 1023.8 |
| 20260830120048 | 72 | 148 | 2.0 | 6.0 | 0.00 | 0.00 | 0.00 | 90 | 1023.7 |
| 20260830114559 | 70 | 148 | 1.0 | 5.0 | 0.00 | 0.00 | 0.00 | 93 | 1023.7 |
| 20260830113052 | 69 | 0 | 1.0 | 2.0 | 0.00 | 0.00 | 0.00 | 94 | 1023.7 |
| 20260830111550 | 67 | 0 | 0.0 | 2.0 | 0.00 | 0.00 | 0.00 | 94 | 1023.7 |
| 20260830104557 | 66 | 148 | 2.0 | 3.0 | 0.00 | 0.00 | 0.00 | 94 | 1023.7 |
| 20260830103056 | 66 | 0 | 0.0 | 1.0 | 0.00 | 0.00 | 0.00 | 94 | 1023.7 |
| 20260830101557 | 66 | 0 | 0.0 | 0.0 | 0.00 | 0.00 | 0.00 | 94 | 1023.6 |
| 20260830100049 | 66 | 148 | 0.0 | 0.0 | 0.00 | 0.00 | 0.00 | 94 | 1023.7 |
| 20260830094555 | 66 | 148 | 1.0 | 3.0 | 0.00 | 0.00 | 0.00 | 94 | 1023.5 |
| 20260830093053 | 66 | 148 | 0.0 | 2.0 | 0.00 | 0.00 | 0.00 | 93 | 1023.5 |
| 20260830091559 | 66 | 0 | 0.0 | 0.0 | 0.00 | 0.00 | 0.00 | 93 | 1023.6 |
| 20260830090055 | 66 | 0 | 0.0 | 2.0 | 0.00 | 0.00 | 0.00 | 93 | 1023.4 |
| 20260830084555 | 66 | 148 | 1.0 | 2.0 | 0.00 | 0.00 | 0.00 | 93 | 1023.5 |
| 20260830083052 | 66 | 0 | 0.0 | 1.0 | 0.00 | 0.00 | 0.00 | 93 | 1023.6 |
| 20260830081557 | 66 | 0 | 0.0 | 3.0 | 0.00 | 0.00 | 0.00 | 93 | 1023.5 |
| 20260830080055 | 66 | 0 | 0.0 | 1.0 | 0.00 | 0.00 | 0.00 | 92 | 1023.2 |
| 20260830074557 | 66 | 0 | 0.0 | 2.0 | 0.00 | 0.00 | 0.00 | 92 | 1023.1 |
| 20260830073051 | 66 | 148 | 1.0 | 3.0 | 0.00 | 0.00 | 0.00 | 92 | 1023.4 |
| 20260830071559 | 67 | 0 | 0.0 | 2.0 | 0.00 | 0.00 | 0.00 | 92 | 1023.5 |
| 20260830070055 | 67 | 148 | 1.0 | 3.0 | 0.00 | 0.00 | 0.00 | 92 | 1023.7 |
| 20260830064606 | 67 | 0 | 0.0 | 3.0 | 0.00 | 0.00 | 0.00 | 92 | 1023.8 |
| 20260830063049 | 67 | 148 | 0.0 | 2.0 | 0.00 | 0.00 | 0.00 | 92 | 1023.8 |
| 20260830061555 | 67 | 148 | 0.0 | 3.0 | 0.00 | 0.00 | 0.00 | 91 | 1024.0 |
| 20260830060059 | 67 | 0 | 0.0 | 2.0 | 0.00 | 0.00 | 0.00 | 91 | 1023.8 |
| 20260830054547 | 67 | 148 | 1.0 | 3.0 | 0.00 | 0.00 | 0.00 | 91 | 1023.8 |
| 20260830053056 | 67 | 0 | 0.0 | 2.0 | 0.00 | 0.00 | 0.00 | 91 | 1024.0 |
| 20260830051554 | 67 | 0 | 0.0 | 2.0 | 0.00 | 0.00 | 0.00 | 90 | 1024.0 |
| 20260830050053 | 67 | 0 | 0.0 | 0.0 | 0.00 | 0.00 | 0.00 | 90 | 1023.8 |
| 20260830044605 | 67 | 148 | 1.0 | 3.0 | 0.00 | 0.00 | 0.00 | 90 | 1023.8 |
| 20260830043052 | 67 | 148 | 0.0 | 2.0 | 0.00 | 0.00 | 0.00 | 89 | 1023.7 |
| 20260830041555 | 67 | 0 | 0.0 | 0.0 | 0.00 | 0.00 | 0.00 | 88 | 1023.6 |
| 20260830040056 | 67 | 148 | 0.0 | 2.0 | 0.00 | 0.00 | 0.00 | 87 | 1023.6 |
| 20260830034548 | 68 | 148 | 0.0 | 1.0 | 0.00 | 0.00 | 0.00 | 86 | 1023.5 |
| 20260830033055 | 69 | 0 | 0.0 | 2.0 | 0.00 | 0.00 | 0.00 | 86 | 1023.4 |
| 20260830031554 | 69 | 0 | 0.0 | 2.0 | 0.00 | 0.00 | 0.00 | 85 | 1023.4 |
| 20260830030051 | 70 | 0 | 0.0 | 1.0 | 0.00 | 0.00 | 0.00 | 85 | 1023.4 |
| 20260830024604 | 70 | 0 | 0.0 | 5.0 | 0.00 | 0.00 | 0.00 | 84 | 1023.5 |
| 20260830023052 | 70 | 148 | 2.0 | 5.0 | 0.00 | 0.00 | 0.00 | 84 | 1023.6 |
| 20260830021550 | 70 | 148 | 0.0 | 2.0 | 0.00 | 0.00 | 0.00 | 83 | 1023.6 |
| 20260830020056 | 70 | 148 | 1.0 | 5.0 | 0.00 | 0.00 | 0.00 | 83 | 1023.6 |
| 20260830014556 | 70 | 148 | 2.0 | 5.0 | 0.00 | 0.00 | 0.00 | 83 | 1023.2 |
| 20260830013052 | 70 | 148 | 1.0 | 3.0 | 0.00 | 0.00 | 0.00 | 82 | 1023.1 |
| 20260830011604 | 71 | 0 | 1.0 | 5.0 | 0.00 | 0.00 | 0.00 | 83 | 1023.2 |
| 20260830010059 | 71 | 148 | 2.0 | 5.0 | 0.00 | 0.00 | 0.00 | 81 | 1023.1 |
| 20260830004549 | 71 | 0 | 0.0 | 0.0 | 0.00 | 0.00 | 0.00 | 80 | 1023.3 |
| 20260830003056 | 72 | 0 | 0.0 | 3.0 | 0.00 | 0.00 | 0.00 | 79 | 1023.2 |